PDT,Max TemperatureF,Mean TemperatureF,Min TemperatureF,Max Dew PointF,MeanDew PointF,Min DewpointF,Max Humidity, Mean Humidity, Min Humidity, Max Sea Level PressureIn, Mean Sea Level PressureIn, Min Sea Level PressureIn, Max VisibilityMiles, Mean VisibilityMiles, Min VisibilityMiles, Max Wind SpeedMPH, Mean Wind SpeedMPH, Max Gust SpeedMPH,PrecipitationIn, CloudCover, Events, WindDirDegrees
2012-9-1,62,52,42,54,48,41,100,86,63,30.20,30.16,30.07,10,9,4,16,4,21,0.00,0,,357
2012-9-2,62,52,42,54,48,41,100,85,63,30.22,30.19,30.15,10,9,0,17,4,24,0.00,0,,6
2012-9-3,62,53,44,54,51,45,100,90,72,30.17,30.15,30.12,10,7,0,23,6,29,0.00,1,,4
2012-9-4,60,52,44,55,51,45,100,92,77,30.19,30.16,30.10,10,4,0,26,6,30,0.00,5,,354
2012-9-5,59,54,50,55,52,50,100,96,82,30.11,30.05,30.00,10,2,0,18,5,23,0.00,8,,355
2012-9-6,59,55,51,54,53,52,100,97,82,30.05,30.02,30.00,10,4,0,9,5,,0.00,8,,341
2012-9-7,59,52,46,55,52,46,100,95,82,30.12,30.09,30.05,10,2,0,12,3,,0.00,7,,207
2012-9-8,57,55,53,54,53,50,100,93,82,30.12,30.10,30.08,10,6,1,12,6,,0.00,8,,194
2012-9-9,60,56,53,55,51,50,100,82,68,30.12,30.10,30.06,10,10,5,12,6,16,0.00,8,,186
2012-9-10,62,56,50,55,51,45,100,82,59,30.24,30.20,30.12,10,8,0,16,7,24,0.08,3,,345
2012-9-11,60,51,42,50,45,41,93,78,55,30.27,30.23,30.19,10,9,5,24,7,30,0.00,0,,19
2012-9-12,69,56,42,50,45,43,100,71,40,30.20,30.15,30.08,10,9,4,16,5,,0.00,0,,24
2012-9-13,73,60,46,50,43,36,100,60,29,30.14,30.10,30.07,10,9,0,10,6,,0.00,1,,198
2012-9-14,53,47,41,52,46,41,100,95,82,30.15,30.13,30.09,10,4,0,13,2,,0.00,6,,250
2012-9-15,60,53,46,54,51,45,100,88,77,30.21,30.18,30.15,10,8,2,22,4,26,0.00,3,,341
2012-9-16,57,48,39,50,46,39,100,93,77,30.21,30.15,30.07,10,5,0,17,4,22,0.00,2,,354
2012-9-17,75,58,42,54,48,43,100,84,44,30.06,30.04,30.02,10,7,0,10,2,,0.00,1,,205
2012-9-18,57,52,46,52,49,46,100,91,77,30.17,30.14,30.06,10,7,0,15,8,20,0.00,8,,197
2012-9-19,59,56,53,52,50,50,94,85,72,30.20,30.17,30.15,10,10,5,8,1,,0.00,8,,275
2012-9-20,55,53,51,54,52,50,100,95,88,30.18,30.16,30.14,10,5,1,10,2,,0.00,8,,218
2012-9-21,59,52,44,54,50,43,100,91,67,30.20,30.18,30.16,10,7,2,6,1,,0.00,6,,304
2012-9-22,62,52,42,54,49,43,100,88,59,30.21,30.18,30.15,10,8,0,12,4,16,0.01,2,Fog-Rain,41
2012-9-23,62,54,44,54,51,45,100,87,68,30.16,30.14,30.12,10,9,2,16,3,20,0.01,2,Rain,358
2012-9-24,60,52,44,54,49,43,100,89,72,30.19,30.16,30.14,10,7,2,15,4,21,0.00,1,,353
2012-9-25,59,50,42,54,47,41,100,86,67,30.17,30.15,30.12,10,6,1,17,7,26,0.00,1,,347
2012-9-26,57,48,39,50,45,39,100,94,77,30.13,30.08,30.03,10,6,0,18,5,24,0.00,2,Fog,21
2012-9-27,68,55,42,54,49,43,100,88,56,30.04,29.99,29.93,10,7,0,16,3,18,0.00,0,Fog,358
2012-9-28,60,53,46,52,50,46,100,92,72,30.08,30.01,29.95,10,4,0,14,3,20,0.00,3,Fog,328
2012-9-29,59,50,42,52,49,43,100,90,72,30.29,30.20,30.08,7,3,0,21,6,28,0.00,3,Fog-Rain,345
2012-9-30,60,51,42,50,45,41,100,84,59,30.37,30.32,30.26,10,7,3,20,5,24,0.00,0,,12